Shreveport, LA

10:13 PM CDT on May 25, 2017 (GMT -0500)
Shreveport Regional

Weather History for KSHV - September, 2013

Change the Weather History Date:

Sunday, September 29, 2013

  Actual Average Record
Temperature  
Mean Temperature 76 °F 72 °F  
Max Temperature 79 °F 84 °F 101 °F (1953)
Min Temperature 73 °F 61 °F 42 °F (1967)
Degree Days  
Heating Degree Days 0 1  
Month to date heating degree days 0 3  
Since 1 July heating degree days 0 3  
Cooling Degree Days 11 8  
Month to date cooling degree days 502 355  
Year to date cooling degree days 2547 2317  
Growing Degree Days 26 (Base 50)    
Moisture  
Dew Point 73 °F    
Average Humidity 91    
Maximum Humidity 94    
Minimum Humidity 88    
Precipitation  
Precipitation 1.18 in 0.12 in 2.34 in (2012)
Month to date precipitation 9.30 3.03  
Year to date precipitation 36.26 37.02  
Snow  
Snow 0.00 in - - ()
Month to date snowfall 0.0  
Since 1 July snowfall 0.0  
Since 1 September snowfall 0.0  
Snow Depth 0.00 in    
Sea Level Pressure  
Sea Level Pressure 29.94 in    
Wind  
Wind Speed 6 mph (South)    
Max Wind Speed 16 mph    
Max Gust Speed 24 mph    
Visibility 7 miles    
Events Rain    
T = Trace of Precipitation, MM = Missing Value Source: NWS Daily Summary

Daily Weather History Graph

Daily Weather History Graph

Search for Another Location

Airport or City:

Trip Planner

Search our weather history database for the weather conditions in past years. The results will help you decide how hot, cold, wet, or windy it might be!

Date:

Astronomy

Sep. 29, 2013 Rise Set
Actual Time 7:08 AM CDT 7:02 PM CDT
Civil Twilight 6:43 AM CDT 7:26 PM CDT
Nautical Twilight 6:15 AM CDT 7:55 PM CDT
Astronomical Twilight 5:46 AM CDT 8:23 PM CDT
Moon 2:05 AM CDT (9/29) 3:45 PM CDT (9/29)
Length of Visible Light 12h 43m
Length of Day
11h 54m
Waning Crescent, 27% of the Moon is Illuminated
Sep 29
Waning Crescent
Oct 4
New
Oct 11
First Quarter
Oct 18
Full
Oct 26
Last Quarter

Hourly Weather History & Observations

Time (CDT) Temp. Dew Point Humidity Pressure Visibility Wind Dir Wind Speed Gust Speed Precip Events Conditions
12:56 AM 73.9 °F 72.0 °F 93% 29.98 in 10.0 mi SE 6.9 mph - N/A   Overcast
1:53 AM 73.4 °F 71.6 °F 94% 29.98 in 10.0 mi SSE 15.0 mph - N/A   Overcast
1:56 AM 73.9 °F 72.0 °F 93% 29.98 in 10.0 mi SSE 15.0 mph - N/A   Overcast
2:56 AM 73.9 °F 72.0 °F 93% 29.96 in 10.0 mi South 9.2 mph - 0.00 in   Overcast
3:56 AM 73.0 °F 72.0 °F 96% 29.95 in 9.0 mi SSE 11.5 mph - N/A   Overcast
4:56 AM 73.9 °F 72.0 °F 93% 29.95 in 10.0 mi SSW 3.5 mph - 0.00 in   Overcast
5:32 AM 73.4 °F 71.6 °F 94% 29.97 in 10.0 mi Calm Calm - N/A   Overcast
5:56 AM 73.9 °F 72.0 °F 93% 29.96 in 10.0 mi Calm Calm - N/A   Overcast
6:04 AM 73.4 °F 71.6 °F 94% 29.98 in 10.0 mi Calm Calm - N/A   Overcast
6:37 AM 73.4 °F 71.6 °F 94% 29.98 in 10.0 mi Calm Calm - N/A   Overcast
6:56 AM 75.0 °F 73.0 °F 94% 29.97 in 8.0 mi West 4.6 mph - 0.01 in Rain Light Rain
7:27 AM 73.4 °F 71.6 °F 94% 29.98 in 1.0 mi WSW 5.8 mph - 0.16 in Rain Heavy Rain
7:36 AM 73.4 °F 71.6 °F 94% 29.98 in 1.0 mi Calm Calm - 0.33 in Rain Heavy Rain
7:47 AM 73.4 °F 71.6 °F 94% 29.98 in 4.0 mi Calm Calm - 0.39 in Rain Heavy Rain
7:56 AM 73.0 °F 71.1 °F 93% 29.97 in 9.0 mi SSE 6.9 mph - 0.41 in Rain Light Rain
8:19 AM 73.4 °F 71.6 °F 94% 29.98 in 6.0 mi SSE 8.1 mph - 0.00 in   Overcast
8:34 AM 73.4 °F 71.6 °F 94% 29.98 in 3.0 mi SSE 10.4 mph - 0.01 in Rain Rain
8:38 AM 73.4 °F 71.6 °F 94% 29.98 in 3.0 mi SSE 8.1 mph - 0.02 in Rain Rain
8:41 AM 73.4 °F 71.6 °F 94% 29.98 in 2.0 mi SSE 6.9 mph - 0.06 in Rain Heavy Rain
8:45 AM 73.4 °F 71.6 °F 94% 29.98 in 2.0 mi SSE 8.1 mph - 0.14 in Rain Heavy Rain
8:56 AM 73.9 °F 72.0 °F 93% 29.97 in 2.5 mi South 5.8 mph - 0.25 in Rain Rain
9:01 AM 73.4 °F 71.6 °F 94% 29.98 in 4.0 mi South 10.4 mph - 0.00 in Rain Light Rain
9:06 AM 73.4 °F 71.6 °F 94% 29.98 in 6.0 mi South 11.5 mph - 0.00 in   Overcast
9:50 AM 73.4 °F 71.6 °F 94% 29.99 in 8.0 mi South 15.0 mph - 0.00 in Rain Light Rain
9:56 AM 73.9 °F 72.0 °F 93% 29.98 in 7.0 mi South 9.2 mph - 0.01 in Rain Rain
10:56 AM 75.0 °F 73.0 °F 94% 29.98 in 10.0 mi South 9.2 mph - 0.05 in Rain Light Rain
11:56 AM 75.0 °F 73.0 °F 94% 29.98 in 10.0 mi South 5.8 mph - 0.00 in   Overcast
12:56 PM 75.9 °F 73.9 °F 94% 29.96 in 10.0 mi SSW 6.9 mph - N/A   Overcast
1:40 PM 75.2 °F 73.4 °F 94% 29.95 in 2.0 mi South 8.1 mph - 0.01 in Rain Light Rain
1:56 PM 75.9 °F 73.9 °F 94% 29.93 in 2.0 mi South 5.8 mph - 0.03 in Rain Light Rain
2:11 PM 75.2 °F 73.4 °F 94% 29.93 in 2.5 mi South 6.9 mph - 0.00 in Rain Light Rain
2:23 PM 75.2 °F 73.4 °F 94% 29.93 in 2.5 mi South 8.1 mph - 0.01 in Rain Light Rain
2:43 PM 75.2 °F 73.4 °F 94% 29.92 in 3.0 mi South 10.4 mph - 0.07 in Rain Light Rain
2:56 PM 75.9 °F 73.9 °F 94% 29.91 in 6.0 mi Variable 5.8 mph - 0.07 in   Overcast
3:21 PM 77.0 °F 75.2 °F 94% 29.91 in 7.0 mi Calm Calm - 0.01 in   Overcast
3:39 PM 78.8 °F 75.2 °F 89% 29.90 in 10.0 mi Calm Calm - 0.01 in   Overcast
3:47 PM 78.8 °F 75.2 °F 89% 29.90 in 10.0 mi SW 3.5 mph - 0.01 in   Overcast
3:56 PM 78.1 °F 75.9 °F 93% 29.89 in 10.0 mi SSW 5.8 mph - 0.01 in   Overcast
4:46 PM 77.0 °F 73.4 °F 89% 29.90 in 7.0 mi NNE 4.6 mph - 0.03 in   Overcast
4:56 PM 77.0 °F 73.9 °F 90% 29.89 in 7.0 mi ENE 3.5 mph - 0.03 in   Overcast
5:06 PM 77.0 °F 73.4 °F 89% 29.90 in 7.0 mi Calm Calm - N/A   Overcast
5:56 PM 75.0 °F 73.0 °F 94% 29.89 in 5.0 mi Calm Calm - 0.09 in Rain Heavy Rain
6:56 PM 75.0 °F 73.0 °F 94% 29.89 in 3.0 mi NNW 6.9 mph - 0.17 in Rain Light Rain
7:40 PM 75.2 °F 73.4 °F 94% 29.91 in 7.0 mi WNW 3.5 mph - 0.00 in Rain Light Rain
7:51 PM 75.2 °F 73.4 °F 94% 29.91 in 7.0 mi NW 3.5 mph - 0.00 in   Overcast
7:56 PM 75.0 °F 73.0 °F 94% 29.90 in 10.0 mi NW 3.5 mph - 0.00 in   Overcast
8:25 PM 75.2 °F 73.4 °F 94% 29.91 in 10.0 mi Calm Calm - N/A   Overcast
8:56 PM 75.0 °F 73.0 °F 94% 29.91 in 6.0 mi Calm Calm - 0.00 in Rain Light Rain
9:56 PM 75.0 °F 73.0 °F 94% 29.91 in 7.0 mi Calm Calm - 0.00 in   Overcast
10:38 PM 73.4 °F 71.6 °F 94% 29.92 in 10.0 mi South 6.9 mph - N/A   Overcast
10:56 PM 73.9 °F 72.0 °F 93% 29.91 in 3.0 mi SSE 11.5 mph - 0.02 in Rain Light Rain
11:18 PM 73.4 °F 71.6 °F 94% 29.92 in 10.0 mi SSE 4.6 mph - 0.01 in   Overcast
11:56 PM 73.9 °F 73.0 °F 97% 29.91 in 10.0 mi South 3.5 mph - 0.01 in   Overcast